Date String (YYYY-MM-DD hh:mm:ss) UTC,Instrument flags,Ambient pressure (hPa),Sample flow (lpm),Bypass flow (lpm),Sample temperature (°C),Ambient temperature (°C),ASC tube jacket temperature (°C),LED temperature (°C),Box temperature (°C),Sample RH (%),Span deviation,Mass concentration (μg/m³),Mass concentration (μg/m³),Mass concentration (μg/m³)
DateTimeUTC,F1_M11,P_M11,Q1_M11,Q2_M11,T1_M11,T2_M11,T3_M11,T4_M11,T5_M11,U1_M11,ZSPAN_M11,X0_M11,X2_M11,X1_M11
2022-05-30 21:00:00,,0815.1,5.00,0.00,26.3,25.4,00.0,35.2,28.3,10.9,0000.0,0002.86,0000.70,0000.46
2022-05-30 21:01:00,,0815.1,5.01,0.00,26.4,25.4,00.0,35.2,28.3,10.5,0000.0,0002.98,0000.74,0000.46
2022-05-30 21:02:00,,0815.2,5.00,0.00,26.4,25.4,00.0,35.2,28.3,10.1,0000.0,0002.98,0000.73,0000.47
2022-05-30 21:03:00,,0815.2,4.99,0.00,26.4,25.4,00.0,35.2,28.3,10.2,0000.0,0003.00,0000.74,0000.47
2022-05-30 21:04:00,,0815.2,5.00,0.00,26.4,25.4,00.0,35.2,28.3,10.4,0000.0,0003.04,0000.76,0000.48
2022-05-30 21:05:00,,0815.1,5.01,0.00,26.4,25.4,00.0,35.2,28.4,11.3,0000.0,0002.99,0000.74,0000.49
2022-05-30 21:06:00,,0815.1,5.00,0.00,26.4,25.4,00.0,35.2,28.4,10.8,0000.0,0001.49,0000.70,0000.48
2022-05-30 21:07:00,,0815.2,4.99,0.00,26.4,25.5,00.0,35.3,28.4,10.6,0000.0,0001.16,0000.65,0000.47
2022-05-30 21:08:00,,0815.2,5.01,0.00,26.4,25.5,00.0,35.3,28.4,11.0,0000.0,0001.09,0000.62,0000.47
2022-05-30 21:09:00,,0815.2,5.00,0.00,26.5,25.5,00.0,35.3,28.4,11.5,0000.0,0001.21,0000.63,0000.47
2022-05-30 21:10:00,,0815.3,4.99,0.00,26.5,25.5,00.0,35.3,28.4,11.1,0000.0,0001.11,0000.59,0000.46
2022-05-30 21:11:00,,0815.2,4.99,0.00,26.5,25.5,00.0,35.3,28.4,10.4,0000.0,0001.08,0000.59,0000.46
2022-05-30 21:12:00,,0815.2,5.00,0.00,26.5,25.5,00.0,35.3,28.4,10.6,0000.0,0000.96,0000.55,0000.45
2022-05-30 21:13:00,,0815.2,5.00,0.00,26.5,25.5,00.0,35.3,28.5,11.2,0000.0,0000.94,0000.55,0000.45
2022-05-30 21:14:00,,0815.2,4.99,0.00,26.5,25.6,00.0,35.3,28.5,10.9,0000.0,0001.10,0000.59,0000.44
2022-05-30 21:15:00,,0815.2,4.99,0.00,26.5,25.6,00.0,35.3,28.5,12.1,0000.0,0001.09,0000.59,0000.44
2022-05-30 21:16:00,,0815.2,5.00,0.00,26.5,25.6,00.0,35.4,28.5,10.6,0000.0,0001.13,0000.61,0000.44
2022-05-30 21:17:00,,0815.2,5.01,0.00,26.6,25.6,00.0,35.4,28.5,09.6,0000.0,0001.19,0000.63,0000.44
2022-05-30 21:18:00,,0815.2,4.99,0.00,26.6,25.6,00.0,35.4,28.5,10.5,0000.0,0001.25,0000.65,0000.45
2022-05-30 21:19:00,,0815.3,5.00,0.00,26.6,25.7,00.0,35.4,28.6,10.6,0000.0,0001.24,0000.65,0000.44
2022-05-30 21:20:00,,0815.3,5.00,0.00,26.6,25.7,00.0,35.4,28.6,10.6,0000.0,0001.10,0000.63,0000.44
2022-05-30 21:21:00,,0815.3,4.99,0.00,26.6,25.7,00.0,35.4,28.6,11.4,0000.0,0001.23,0000.64,0000.44
2022-05-30 21:22:00,,0815.4,5.00,0.00,26.6,25.7,00.0,35.4,28.6,11.5,0000.0,0001.29,0000.64,0000.44
2022-05-30 21:23:00,,0815.2,5.01,0.00,26.6,25.7,00.0,35.4,28.6,11.9,0000.0,0002.09,0000.65,0000.44
2022-05-30 21:24:00,,0815.0,5.00,0.00,26.6,25.7,00.0,35.5,28.6,11.6,0000.0,0002.18,0000.67,0000.44
2022-05-30 21:25:00,,0815.2,4.99,0.00,26.7,25.7,00.0,35.5,28.6,11.4,0000.0,0002.41,0000.73,0000.45
2022-05-30 21:26:00,,0815.3,5.01,0.00,26.7,25.7,00.0,35.5,28.6,11.3,0000.0,0002.57,0000.78,0000.45
2022-05-30 21:27:00,,0815.6,5.01,0.00,26.7,25.7,00.0,35.5,28.6,11.1,0000.0,0002.72,0000.80,0000.46
2022-05-30 21:28:00,,0815.4,5.01,0.00,26.7,25.7,00.0,35.5,28.6,11.4,0000.0,0002.74,0000.79,0000.45
2022-05-30 21:29:00,,0815.4,4.99,0.00,26.7,25.7,00.0,35.5,28.6,11.2,0000.0,0002.72,0000.79,0000.44
2022-05-30 21:30:00,,0815.9,5.01,0.00,26.7,25.7,00.0,35.5,28.6,10.1,0000.0,0002.72,0000.79,0000.44
2022-05-30 21:31:00,,0815.9,5.01,0.00,26.7,25.7,00.0,35.5,28.6,11.2,0000.0,0002.78,0000.81,0000.44
2022-05-30 21:32:00,,0816.1,4.99,0.00,26.7,25.7,00.0,35.5,28.6,11.2,0000.0,0002.75,0000.84,0000.44
2022-05-30 21:33:00,,0816.0,5.00,0.00,26.7,25.7,00.0,35.5,28.6,11.5,0000.0,0002.74,0000.86,0000.45
2022-05-30 21:34:00,,0816.0,5.00,0.00,26.7,25.7,00.0,35.5,28.6,10.9,0000.0,0002.01,0000.89,0000.46
2022-05-30 21:35:00,,0816.0,5.01,0.00,26.7,25.7,00.0,35.6,28.6,10.8,0000.0,0001.91,0000.88,0000.46
2022-05-30 21:36:00,,0816.0,5.00,0.00,26.7,25.7,00.0,35.6,28.7,11.4,0000.0,0001.55,0000.78,0000.45
2022-05-30 21:37:00,,0815.9,5.00,0.00,26.7,25.7,00.0,35.6,28.7,10.6,0000.0,0001.42,0000.75,0000.44
2022-05-30 21:38:00,,0815.9,4.99,0.00,26.7,25.7,00.0,35.6,28.7,10.8,0000.0,0001.33,0000.74,0000.44
2022-05-30 21:39:00,,0815.5,5.00,0.00,26.7,25.7,00.0,35.6,28.6,10.9,0000.0,0001.24,0000.73,0000.45
2022-05-30 21:40:00,,0816.0,5.00,0.00,26.7,25.7,00.0,35.6,28.6,11.0,0000.0,0001.29,0000.74,0000.46
2022-05-30 21:41:00,,0815.6,5.01,0.00,26.7,25.7,00.0,35.6,28.6,11.1,0000.0,0001.34,0000.76,0000.46
2022-05-30 21:42:00,,0815.4,4.99,0.00,26.7,25.7,00.0,35.6,28.6,11.3,0000.0,0001.31,0000.75,0000.46
2022-05-30 21:43:00,,0815.3,4.99,0.00,26.7,25.7,00.0,35.6,28.6,11.2,0000.0,0001.27,0000.74,0000.46
2022-05-30 21:44:00,,0815.3,5.00,0.00,26.7,25.7,00.0,35.6,28.6,11.3,0000.0,0001.32,0000.75,0000.46
2022-05-30 21:45:00,,0815.3,5.01,0.00,26.7,25.7,00.0,35.6,28.6,11.6,0000.0,0001.33,0000.75,0000.46
2022-05-30 21:46:00,,0815.3,4.99,0.00,26.7,25.8,00.0,35.6,28.7,11.6,0000.0,0001.31,0000.74,0000.47
2022-05-30 21:47:00,,0815.7,5.00,0.00,26.7,25.8,00.0,35.6,28.7,11.4,0000.0,0001.35,0000.76,0000.47
2022-05-30 21:48:00,,0816.0,5.00,0.00,26.8,25.8,00.0,35.6,28.7,12.5,0000.0,0001.42,0000.79,0000.47
2022-05-30 21:49:00,,0815.7,5.01,0.00,26.8,25.8,00.0,35.6,28.7,12.7,0000.0,0001.34,0000.75,0000.46
2022-05-30 21:50:00,,0816.0,4.99,0.00,26.8,25.8,00.0,35.6,28.7,12.0,0000.0,0001.45,0000.77,0000.46
2022-05-30 21:51:00,,0815.9,5.00,0.00,26.8,25.8,00.0,35.6,28.7,11.9,0000.0,0001.51,0000.78,0000.45
2022-05-30 21:52:00,,0815.7,5.01,0.00,26.8,25.9,00.0,35.7,28.7,11.8,0000.0,0001.53,0000.78,0000.45
2022-05-30 21:53:00,,0815.7,5.01,0.00,26.8,25.9,00.0,35.7,28.8,11.8,0000.0,0002.88,0000.80,0000.45
2022-05-30 21:54:00,,0815.6,5.00,0.00,26.8,25.9,00.0,35.7,28.8,12.2,0000.0,0003.00,0000.83,0000.45
2022-05-30 21:55:00,,0815.6,5.00,0.00,26.8,25.9,00.0,35.7,28.8,11.5,0000.0,0002.94,0000.79,0000.44
2022-05-30 21:56:00,,0815.7,4.99,0.00,26.9,25.9,00.0,35.7,28.8,11.7,0000.0,0003.55,0000.76,0000.43
2022-05-30 21:57:00,,0815.8,4.99,0.00,26.9,25.9,00.0,35.7,28.8,11.7,0000.0,0003.57,0000.77,0000.42
2022-05-30 21:58:00,,0815.8,5.00,0.00,26.9,25.9,00.0,35.7,28.8,12.1,0000.0,0003.64,0000.78,0000.42
2022-05-30 21:59:00,,0815.9,4.98,0.00,26.9,25.9,00.0,35.7,28.8,12.1,0000.0,0003.64,0000.80,0000.42
